Погода в Мукшах

Россия / Удмуртская Республика     57°14′23″N   53°23′34″E
темп.,
°C
ветер,
м/с
пор.,
м/с
влажн.,
%
обл.,
%
осадки,
мм/ч
давл.,
гПа
погр.,
м
15 апреля, чт
чт1501:00+8ююз22895 0.0 102522
04:00+7ююз339052 0.0 102435
07:00+4ююз22100100 0.0 102363
10:00+11ююз369224 0.0 1022271
13:00+16юз58661 0.0 10201106
16:00+17зюз47600 0.0 10191482
19:00+13з227679 0.1 101927
22:00+9ссв6109582 0.4 1021314
16 апреля, пт
пт1601:00+6св61287100 0.1 1023512
04:00+4св61186100 0.4 1025578
07:00+4св6127499 0.0 1026628
10:00+6св79502 0.0 1027754
13:00+9св67410 0.0 10271033
16:00+10св56390 0.0 10271144
19:00+7ссв48520 0.0 1027258
22:00+3ссв410620 0.0 1028208
17 апреля, сб
сб1701:00+1ссв39690 0.0 1029181
04:000ссв37745 0.0 1029130
07:00+2ссв37665 0.0 1030224
10:00+7св45482 0.0 10301007
13:00+9ссв34435 0.0 10281441
16:00+10с344332 0.0 10271640
19:00+7ссз23595 0.0 102651
22:00+4ссз22695 0.0 102625
18 апреля, вс
вс1801:00+3ссз23760 0.0 102547
04:00+1сз37820 0.0 1025126
07:00+3ссз410770 0.0 1024310
10:00+7с676276 0.0 10251233
13:00+6ссв574649 0.0 10261652
16:00+6св783539 0.0 10281895
19:00+4св59446 0.0 1030569
22:00+1св512480 0.0 1032481
19 апреля, пн
пн1901:00−1всв410645 0.0 1033358
04:00−1всв49625 0.0 1035363
07:00−1в58510 0.0 1036576
10:00+2в56300 0.0 10361421
13:00+4в45280 0.0 10351591
16:00+5в44300 0.0 10351596
19:00+3всв23440 0.0 103443
22:000всв22510 0.0 103529